Location: Zagreb
(45.8000°N, 16.0000°E)
Time: 03:34:27
(UTC+01:00)

Vanguard 1 - All Passes

Search period start: 25 January 2020 00:00
Search period end: 04 February 2020 00:00
Orbit: 651 x 3833 km, 34.2° (Epoch: 24 January)

Date Brightness Start Highest point End Pass type
(mag) Time Alt. Az. Time Alt. Az. Time Alt. Az.
25 Jan - 16:18:55 10° SSW 16:21:08 13° SSE 16:23:24 10° SE daylight
25 Jan - 18:36:27 10° SW 18:40:15 24° S 18:45:08 10° ESE visible
25 Jan - 20:55:38 10° WSW 21:00:00 20° SSW 21:06:04 10° SSE visible
26 Jan - 16:38:53 10° SSW 16:41:46 17° SSE 16:44:47 10° SE daylight
26 Jan - 18:57:11 10° SW 19:00:58 23° S 19:05:54 10° SE visible
26 Jan - 21:17:05 10° SW 21:20:52 16° SSW 21:25:49 10° SSE visible
27 Jan - 16:59:14 10° SW 17:02:26 19° S 17:05:51 10° SE daylight
27 Jan - 19:18:04 10° SW 19:21:44 21° S 19:26:28 10° SE visible
27 Jan - 21:39:22 10° SW 21:41:46 12° SSW 21:44:32 10° S visible
28 Jan - 15:02:14 10° S 15:03:54 12° SSE 15:05:30 10° SE daylight
28 Jan - 17:19:47 10° SW 17:23:07 21° S 17:26:45 10° SE visible
28 Jan - 19:39:08 10° SW 19:42:31 18° S 19:46:46 10° SSE visible
29 Jan - 15:21:48 10° SSW 15:24:37 15° SSE 15:27:11 10° SE daylight
29 Jan - 17:40:29 10° SW 17:43:50 21° S 17:47:31 10° SE visible
29 Jan - 20:00:33 10° SW 20:03:18 14° SSW 20:06:36 10° SSE visible
30 Jan - 15:42:00 10° SW 15:45:19 18° S 15:48:21 10° SE daylight
30 Jan - 18:01:20 10° SW 18:04:31 19° S 18:08:06 10° SE visible
30 Jan - 20:23:13 10° SSW 20:24:06 10° SSW 20:25:02 10° S visible
31 Jan - 13:44:17 10° S 13:46:32 12° SSE 13:48:33 10° SE daylight
31 Jan - 16:02:29 10° SW 16:06:02 20° S 16:09:17 10° SE daylight
31 Jan - 18:22:22 10° SW 18:25:14 17° S 18:28:27 10° SSE visible
01 Feb - 14:03:42 10° SSW 14:07:20 16° SSE 14:10:19 10° SE daylight
01 Feb - 16:23:09 10° SW 16:26:44 21° S 16:30:03 10° SE daylight
01 Feb - 18:43:44 10° SW 18:45:57 13° SSW 18:48:23 10° SSE visible
02 Feb - 14:23:48 10° SW 14:28:06 19° S 14:31:32 10° SE daylight
02 Feb - 16:43:59 10° SW 16:47:25 20° S 16:50:41 10° SE daylight
03 Feb - 12:25:13 10° S 12:28:59 14° SSE 12:32:02 10° SE daylight
03 Feb - 14:44:15 10° SW 14:48:51 22° S 14:52:29 10° SE daylight
03 Feb - 17:04:58 10° SW 17:08:05 18° SSW 17:11:07 10° SSE daylight
